[[{"header":{"parameterUnit":"m.s-1","parameterCategory":1,"la1":30.2991,"la2":30.254,"lo1":-89.0895,"lo2":-89.0444,"dy":0.0017,"dx":0.0017,"nx":28,"ny":28,"refTime":"2023-07-18T03:00:00:Z","depth":0,"parameterNumber":2,"parameterNumberName":"U-component_of_WINDS"},"data":[0,0,0,0,0,0,0,0,0,0,0,0,0,0,0,0,0,0,0,0,0,0,0,0,0,0,0,0,0,0,0,0,0,0,0,0,0,0,0,0,0,0,0,0,0,0,0,0,0,0,0,0,0,0,0,0,0,0,-0.7824,-0.7824,0,-0.7785,-0.7785,-0.7785,-0.775,-0.775,-0.7749,-0.7749,-0.771,-0.7709,-0.7709,0,0,0,0,0,0,0,0,0,0,0,0,0,-0.7869,-0.7869,-0.7824,-0.7823,-0.7823,-0.7786,-0.7785,-0.7785,-0.775,-0.7749,-0.7749,-0.7749,-0.771,-0.7709,-0.7708,0,0,0,0,0,0,0,0,0,0,0,0,0,-0.7842,-0.7868,-0.7824,-0.7801,-0.7799,-0.7786,-0.7785,-0.7784,-0.775,-0.7749,-0.7749,-0.7748,-0.771,-0.7709,-0.7708,-0.7715,0,0,-0.7705,-0.7705,0,0,0,0,0,0,0,0,-0.7844,-0.7841,-0.7805,-0.7803,-0.78,-0.7772,-0.7787,-0.7761,-0.775,-0.7769,-0.7749,-0.7748,-0.7731,-0.7728,-0.7722,-0.7713,-0.7711,-0.7705,-0.7705,-0.7704,-0.7704,0,0,0,0,0,0,0,-0.7846,-0.7842,-0.7809,-0.7805,-0.7802,-0.7794,-0.7789,-0.7782,-0.7754,-0.7767,-0.7764,-0.776,-0.7729,-0.7723,-0.7721,-0.7711,-0.7705,-0.7704,-0.7704,-0.7703,-0.7706,-0.7707,0,0,0,0,0,0,-0.7851,-0.7844,-0.781,-0.7808,-0.7821,-0.7793,-0.7788,-0.7782,-0.7754,-0.7749,-0.7761,-0.7759,-0.7725,-0.7722,-0.772,-0.7726,-0.7704,-0.7703,-0.7703,-0.7705,-0.7706,-0.7707,0,0,0,0,0,0,-0.7852,-0.7848,-0.7811,-0.7825,-0.782,-0.7793,-0.7786,-0.7781,-0.7775,-0.7749,-0.7744,-0.776,-0.7725,-0.7721,-0.7717,-0.7724,-0.7703,-0.7702,-0.7705,-0.7706,-0.7706,-0.7739,0,0,0,0,0,0,-0.7853,-0.7849,-0.785,-0.7825,-0.7819,-0.7809,-0.7786,-0.7781,-0.7773,-0.777,-0.7747,-0.7742,-0.7724,-0.7718,-0.7716,-0.7722,-0.7701,-0.7704,-0.7705,-0.7706,-0.7737,-0.774,-0.7744,0,0,0,0,0,-0.7855,-0.7861,-0.7851,-0.7847,-0.7821,-0.7809,-0.7806,-0.7784,-0.7774,-0.7776,-0.776,-0.7743,-0.7724,-0.7718,-0.7715,-0.7722,-0.7703,-0.7705,-0.7706,-0.7735,-0.774,-0.7744,0,0,0,0,0,0,-0.7887,-0.7857,-0.7845,-0.7843,-0.7829,-0.7803,-0.7805,-0.779,-0.7778,-0.7776,-0.7751,-0.7746,-0.7744,-0.7732,-0.7726,-0.7727,-0.7711,-0.7712,-0.7735,-0.7739,-0.7742,-0.7745,-0.77,0,0,0,0,0,-0.7894,-0.7887,-0.7861,-0.7862,-0.7855,-0.7831,-0.7825,-0.7811,-0.7795,-0.7789,-0.7772,-0.7758,-0.7749,-0.7743,-0.7733,-0.7735,-0.773,-0.7738,-0.7742,-0.7745,-0.7746,-0.7747,-0.7751,-0.7712,-0.7712,-0.7712,0,0,-0.7908,-0.7891,-0.7888,-0.7868,-0.7855,-0.7849,-0.7826,-0.782,-0.7816,-0.7788,-0.7783,-0.777,-0.7753,-0.7752,-0.775,-0.7742,-0.7756,-0.7747,-0.7749,-0.7749,-0.7749,-0.7753,-0.7756,-0.7713,-0.7712,-0.7712,0,0,-0.7931,-0.7917,-0.7916,-0.7904,-0.7885,-0.7869,-0.7869,-0.7846,-0.7837,-0.7831,-0.781,-0.7805,-0.7789,-0.7778,-0.777,-0.779,-0.7775,-0.7788,-0.7806,-0.7808,-0.7811,-0.7813,-0.7821,-0.7824,-0.7789,-0.7789,-0.7789,0,-0.7951,-0.794,-0.7917,-0.7913,-0.7905,-0.788,-0.788,-0.7869,-0.7848,-0.7844,-0.7835,-0.7816,-0.7802,-0.7798,-0.7803,-0.7798,-0.7798,-0.779,-0.7812,-0.7814,-0.7816,-0.7823,-0.7826,-0.7791,-0.7791,-0.779,-0.779,0,-0.7965,-0.7958,-0.796,-0.7941,-0.7933,-0.7931,-0.7909,-0.7904,-0.789,-0.7876,-0.7871,-0.7854,-0.7841,-0.7839,-0.7826,-0.7834,-0.783,-0.7817,-0.78,-0.7822,-0.7828,-0.7831,-0.7793,-0.7793,-0.7792,-0.7792,0,0,-0.8006,-0.7975,-0.7976,-0.7967,-0.7946,-0.794,-0.7937,-0.7924,-0.7921,-0.7908,-0.7905,-0.7894,-0.7882,-0.7873,-0.7858,-0.786,-0.7877,-0.7846,-0.7846,-0.7853,-0.7886,-0.7896,-0.79,-0.7867,-0.7868,-0.7868,-0.7888,0,-0.8025,-0.8017,-0.7998,-0.7997,-0.7991,-0.7968,-0.7965,-0.7952,-0.7939,-0.7932,-0.7918,-0.791,-0.7895,-0.789,-0.789,-0.7875,-0.7884,-0.7873,-0.7865,-0.7865,-0.787,-0.7903,-0.7913,-0.7933,-0.789,-0.7891,-0.7891,0,-0.8046,-0.8034,-0.8033,-0.8012,-0.8009,-0.8007,-0.7994,-0.7988,-0.7973,-0.7963,-0.7954,-0.7938,-0.7935,-0.792,-0.7915,-0.7909,-0.7904,-0.7897,-0.7897,-0.7895,-0.7879,-0.7902,-0.7938,-0.7941,-0.7894,-0.7894,-0.7894,0,-0.8076,-0.806,-0.8057,-0.8051,-0.8026,-0.8026,-0.8016,-0.8,-0.7994,-0.7983,-0.7979,-0.7968,-0.7962,-0.7954,-0.7936,-0.7927,-0.7934,-0.7917,-0.7926,-0.7926,-0.7928,-0.7928,-0.7964,-0.7925,-0.7925,-0.7925,-0.7925,0,-0.8099,-0.8099,-0.8071,-0.8069,-0.8069,-0.8047,-0.8048,-0.8035,-0.8022,-0.8018,-0.7998,-0.7995,-0.797,-0.7965,-0.795,-0.7949,-0.7946,-0.7939,-0.7935,-0.7941,-0.7942,-0.7937,-0.7936,-0.7926,-0.7926,-0.7926,-0.7926,0,-0.8133,-0.8114,-0.8109,-0.8087,-0.8081,-0.8082,-0.8064,-0.8062,-0.8048,-0.8043,-0.8041,-0.8019,-0.8012,-0.7993,-0.798,-0.797,-0.7973,-0.7966,-0.7978,-0.7976,-0.7986,-0.7985,-0.802,-0.8024,-0.7983,-0.7983,-0.7984,0,-0.8149,-0.8148,-0.8126,-0.8122,-0.8113,-0.8106,-0.81,-0.8079,-0.8074,-0.8058,-0.8058,-0.8049,-0.804,-0.8029,-0.8013,-0.8003,-0.7996,-0.8009,-0.7994,-0.8,-0.7996,-0.7997,-0.7997,-0.8012,-0.8012,-0.8013,-0.8013,0,-0.8179,-0.817,-0.8162,-0.8151,-0.8144,-0.8134,-0.8123,-0.8121,-0.8098,-0.8093,-0.8085,-0.8079,-0.8066,-0.8058,-0.8046,-0.8036,-0.8021,-0.8018,-0.802,-0.8025,-0.8033,-0.8029,-0.7987,-0.8017,-0.8017,-0.8017,-0.8016,-0.8016,-0.8205,-0.8204,-0.8188,-0.818,-0.817,-0.816,-0.8158,-0.8144,-0.8137,-0.8125,-0.8113,-0.8107,-0.8093,-0.8075,-0.8067,-0.8062,-0.8054,-0.8056,-0.8057,-0.8058,-0.806,-0.8034,-0.806,-0.8059,-0.8059,-0.8059,-0.8059,0,-0.8235,-0.8224,-0.8217,-0.8202,-0.8196,-0.8183,-0.817,-0.8166,-0.8161,-0.8149,-0.8141,-0.8133,-0.8125,-0.8108,-0.8099,-0.8098,-0.8091,-0.8096,-0.8096,-0.8094,-0.8068,-0.8067,-0.8102,-0.8102,-0.8102,-0.8102,-0.8102,-0.8102,-0.825,-0.8248,-0.8237,-0.823,-0.8219,-0.8212,-0.8206,-0.8198,-0.8189,-0.818,-0.8173,-0.8162,-0.8149,-0.8138,-0.8131,-0.8126,-0.8124,-0.8131,-0.8125,-0.81,-0.8096,-0.8092,-0.8092,-0.8131,-0.8131,-0.8151,-0.8152,-0.8152]},{"header":{"parameterUnit":"m.s-1","parameterCategory":1,"la1":30.2991,"la2":30.254,"lo1":-89.0895,"lo2":-89.0444,"dy":0.0017,"dx":0.0017,"nx":28,"ny":28,"refTime":"2023-07-18T03:00:00:Z","depth":0,"parameterNumber":3,"parameterNumberName":"V-component_of_WINDS"},"data":[0,0,0,0,0,0,0,0,0,0,0,0,0,0,0,0,0,0,0,0,0,0,0,0,0,0,0,0,0,0,0,0,0,0,0,0,0,0,0,0,0,0,0,0,0,0,0,0,0,0,0,0,0,0,0,0,0,0,5.5885,5.5885,0,5.5852,5.5852,5.5851,5.5783,5.5782,5.578,5.5779,5.5746,5.5747,5.5747,0,0,0,0,0,0,0,0,0,0,0,0,0,5.5892,5.5892,5.5885,5.5885,5.5884,5.5852,5.5852,5.5851,5.5783,5.5782,5.578,5.5778,5.5746,5.5747,5.5747,0,0,0,0,0,0,0,0,0,0,0,0,0,5.5877,5.5892,5.5885,5.5847,5.5843,5.5852,5.5852,5.5851,5.5784,5.5781,5.5779,5.5778,5.5746,5.5747,5.5747,5.5792,0,0,5.5749,5.575,0,0,0,0,0,0,0,0,5.5878,5.5877,5.5853,5.5849,5.5845,5.5819,5.5842,5.5831,5.5784,5.5806,5.5779,5.5777,5.5773,5.5771,5.5769,5.5791,5.5789,5.5749,5.575,5.575,5.575,0,0,0,0,0,0,0,5.5879,5.5878,5.5872,5.5852,5.5848,5.5831,5.5827,5.584,5.5801,5.5804,5.5799,5.5796,5.577,5.5769,5.5768,5.5789,5.5749,5.575,5.575,5.575,5.5845,5.5847,0,0,0,0,0,0,5.5885,5.5879,5.5873,5.5871,5.5857,5.5833,5.5828,5.583,5.5801,5.5795,5.5798,5.5793,5.5769,5.5767,5.5767,5.5817,5.575,5.5751,5.5751,5.5843,5.5846,5.5848,0,0,0,0,0,0,5.5886,5.5885,5.5875,5.5874,5.5871,5.5835,5.5838,5.583,5.5829,5.5796,5.5789,5.5803,5.5767,5.5766,5.5786,5.5814,5.5751,5.5751,5.5841,5.5844,5.5847,5.5918,0,0,0,0,0,0,5.5886,5.5886,5.5902,5.5875,5.5871,5.5895,5.5839,5.5831,5.583,5.5823,5.5799,5.5794,5.5765,5.5786,5.5787,5.5814,5.5752,5.5838,5.5842,5.5846,5.5913,5.5923,5.5932,0,0,0,0,0,5.5887,5.5924,5.5903,5.5903,5.5891,5.5896,5.5894,5.5861,5.5832,5.5849,5.5828,5.5794,5.5812,5.5788,5.5789,5.5817,5.5836,5.5841,5.5846,5.5908,5.5921,5.5931,0,0,0,0,0,0,5.5956,5.5919,5.5896,5.5926,5.5915,5.5885,5.5904,5.5875,5.5872,5.5866,5.5825,5.582,5.5846,5.5834,5.5809,5.5859,5.5818,5.5824,5.5866,5.5877,5.5887,5.5889,5.5752,0,0,0,0,0,5.5975,5.5982,5.595,5.5979,5.5974,5.5941,5.5942,5.5916,5.5903,5.5899,5.5879,5.5868,5.5871,5.5874,5.5874,5.5911,5.5905,5.5931,5.594,5.5948,5.5953,5.5971,5.5982,5.5864,5.5864,5.5864,0,0,5.6014,5.5995,5.6002,5.5992,5.5981,5.5989,5.5937,5.5948,5.5954,5.59,5.5918,5.5904,5.5889,5.5918,5.5929,5.5908,5.5984,5.5954,5.5961,5.5961,5.5977,5.5988,5.5998,5.5867,5.5867,5.5866,0,0,5.6089,5.6075,5.6097,5.6087,5.607,5.6047,5.6053,5.6027,5.6015,5.6033,5.5992,5.5999,5.6005,5.5996,5.5992,5.6064,5.6033,5.6066,5.6115,5.6133,5.6143,5.6151,5.6176,5.6185,5.6071,5.6071,5.6071,0,5.6139,5.615,5.6113,5.6126,5.6123,5.6075,5.6098,5.6089,5.6074,5.6073,5.605,5.6056,5.6043,5.6068,5.6086,5.6084,5.6089,5.6068,5.6144,5.6152,5.6159,5.6182,5.6192,5.6075,5.6075,5.6074,5.6074,0,5.6212,5.622,5.6241,5.6226,5.6226,5.6244,5.621,5.6214,5.619,5.617,5.6188,5.617,5.6167,5.6171,5.6147,5.6193,5.6181,5.6152,5.611,5.6175,5.6196,5.6205,5.6081,5.6079,5.6078,5.6077,0,0,5.6329,5.6294,5.6302,5.6295,5.6273,5.6279,5.6295,5.6291,5.6295,5.6287,5.6299,5.6305,5.6278,5.6274,5.6249,5.6265,5.6322,5.6233,5.6232,5.625,5.6371,5.6393,5.6404,5.6302,5.6303,5.6305,5.6372,0,5.6399,5.6423,5.6391,5.6423,5.643,5.6385,5.6399,5.6387,5.6369,5.6373,5.6353,5.6358,5.6322,5.6319,5.6333,5.6312,5.6346,5.6307,5.6313,5.6314,5.6317,5.6415,5.6438,5.6502,5.638,5.6382,5.6383,0,5.6482,5.6477,5.651,5.6486,5.6487,5.6501,5.6494,5.6498,5.6484,5.647,5.6466,5.6435,5.645,5.641,5.643,5.6404,5.6405,5.6395,5.6397,5.6395,5.6352,5.6416,5.6522,5.6532,5.6396,5.6395,5.6394,0,5.6564,5.6565,5.6585,5.658,5.6552,5.6563,5.6552,5.6536,5.6535,5.653,5.6529,5.6526,5.6524,5.6523,5.6493,5.6467,5.6516,5.6474,5.6504,5.6505,5.6516,5.6515,5.6623,5.6518,5.6518,5.6518,5.6517,0,5.6644,5.6666,5.6621,5.6633,5.6656,5.6619,5.6643,5.6627,5.6614,5.6622,5.6583,5.6592,5.6552,5.6557,5.6534,5.6553,5.6553,5.6541,5.6535,5.6544,5.6546,5.6544,5.6538,5.652,5.652,5.6519,5.6519,0,5.6738,5.6709,5.6727,5.67,5.6693,5.6712,5.6688,5.6698,5.6678,5.6689,5.669,5.6658,5.6661,5.6631,5.663,5.6614,5.6644,5.663,5.6649,5.6644,5.6676,5.6673,5.6786,5.6798,5.6686,5.6687,5.6688,0,5.6791,5.6807,5.6781,5.6783,5.6774,5.6779,5.6778,5.6743,5.6744,5.6729,5.6741,5.6741,5.6739,5.6747,5.6724,5.6723,5.6708,5.6747,5.6707,5.6716,5.6707,5.6707,5.6708,5.6756,5.6757,5.6758,5.6759,0,5.6888,5.6872,5.6873,5.6868,5.6868,5.6863,5.6855,5.6859,5.6821,5.6824,5.6827,5.6825,5.6823,5.6824,5.6818,5.6807,5.6777,5.6772,5.6779,5.6788,5.6798,5.6793,5.6671,5.6769,5.6768,5.6768,5.6767,5.6767,5.6962,5.6974,5.6957,5.6959,5.6949,5.6943,5.6951,5.6931,5.6933,5.6928,5.6907,5.6914,5.6899,5.6888,5.688,5.6884,5.6865,5.6875,5.6878,5.6881,5.6886,5.6798,5.6883,5.6883,5.6883,5.6882,5.6882,0,5.7056,5.7043,5.7045,5.7035,5.7036,5.7008,5.6998,5.7001,5.7007,5.6996,5.6995,5.6998,5.6999,5.6976,5.6973,5.6982,5.6968,5.6982,5.6981,5.6979,5.6904,5.6898,5.6993,5.6993,5.6993,5.6993,5.6993,5.6993,5.7105,5.7123,5.7106,5.7119,5.7106,5.7112,5.7108,5.7102,5.7093,5.7098,5.7098,5.7083,5.7068,5.7064,5.7063,5.7056,5.7057,5.7076,5.7065,5.6995,5.6984,5.6974,5.6968,5.7077,5.7077,5.7139,5.7139,5.714]}]]